This demonstration page uses our WeatherBlox Daily Observations layout. Learn more.

Left ArrowRight Arrow

Hourly Observations for May 16, 2020

Temp ( °F °C ) Dew Point ( °F °C ) Humidity (%) Winds ( mph kmh ) Pressure ( in mb ) Visibility ( mi km ) Precip ( " mm )
12:50 am 00:50 Clear with Mist and Fog 57 14 57 14 100 100 Calm 30.02 1017 1 1 0.00 0.00
12:53 am 00:53 Clear with Mist and Fog 58 14.4 57 13.9 97 97 Calm 30.01 1016 1 1 0.00 0.00
12:58 am 00:58 Clear with Mist and Fog 59 15 57 13.9 93 93 Calm 30.02 1016 2 3 0.00 0.00
1:05 am 01:05 Clear with Mist and Fog 59 15 57 13.9 93 93 Calm 30.02 1016 6 10 0.00 0.00
1:53 am 01:53 Clear with Mist and Fog 58 14.4 57 13.9 97 97 Calm 30.01 1016 5 8 0.00 0.00
2:02 am 02:02 Clear with Mist and Fog 57 13.9 56 13.3 96 96 Calm 30.02 1017 2 3 0.00 0.00
2:09 am 02:09 Clear with Mist and Fog 58 14.4 56 13.3 93 93 Calm 30.01 1016 1 2 0.00 0.00
2:13 am 02:13 Clear with Mist and Fog 58 14.4 56 13.3 93 93 Calm 30.01 1016 2 3 0.00 0.00
2:21 am 02:21 Clear with Mist and Fog 58 14.4 57 13.9 97 97 Calm 30.02 1017 3 5 0.00 0.00
2:32 am 02:32 Clear with Mist and Fog 58 14.4 56 13.3 93 93 Calm 30.02 1017 1 2 0.00 0.00
2:44 am 02:44 Mostly Cloudy with Mist and Fog 57 13.9 55 12.8 93 93 Calm 30.02 1017 1 1 0.00 0.00
2:53 am 02:53 Mostly Cloudy with Mist and Fog 57 13.9 56 13.3 96 96 Calm 30.00 1016 1 1 0.00 0.00
2:56 am 02:56 Partly Cloudy with Mist and Fog 57 13.9 57 13.9 100 100 Calm 30.01 1016 1 2 0.00 0.00
3:02 am 03:02 Partly Cloudy with Mist and Fog 57 13.9 57 13.9 100 100 Calm 30.01 1016 2 3 0.00 0.00
3:13 am 03:13 Mostly Clear with Mist and Fog 58 14.4 57 13.9 97 97 Calm 30.01 1016 3 5 0.00 0.00
3:32 am 03:32 Clear with Mist and Fog 57 13.9 56 13.3 96 96 Calm 30.02 1017 3 4 0.00 0.00
3:53 am 03:53 Clear with Mist and Fog 57 13.9 56 13.3 96 96 Calm 30.01 1016 4 6 0.00 0.00
4:11 am 04:11 Clear with Mist and Fog 57 13.9 57 13.9 100 100 Calm 30.01 1016 2 3 0.00 0.00
4:45 am 04:45 Partly Cloudy with Mist and Fog 57 13.9 57 13.9 100 100 Calm 30.02 1017 3 5 0.00 0.00
4:53 am 04:53 Mostly Cloudy with Mist and Fog 58 14.4 57 13.9 97 97 Calm 30.02 1017 3 5 0.00 0.00
5:32 am 05:32 Mostly Cloudy with Mist and Fog 59 15 58 14.4 96 96 Calm 30.03 1017 3 4 0.00 0.00
5:53 am 05:53 Mostly Clear with Mist and Fog 59 15 58 14.4 96 96 Calm 30.03 1017 3 4 0.00 0.00
6:53 am 06:53 Cloudy with Mist and Fog 61 16.1 60 15.6 97 97 NNE 3 6 30.04 1017 3 4 0.00 0.00
7:03 am 07:03 Cloudy with Mist and Fog 62 16.7 60 15.6 93 93 NE 5 7 30.04 1017 4 6 0.00 0.00
7:42 am 07:42 Cloudy with Mist and Fog 63 17.2 61 16.1 93 93 ENE 3 6 30.05 1018 6 10 0.00 0.00
7:53 am 07:53 Cloudy with Light Rain 63 17.2 62 16.7 97 97 Calm 30.05 1018 4 6 0.00 0.00
8:00 am 08:00 Cloudy with Light Rain 63 17.2 62 16.7 97 97 Calm 30.05 1018 3 5 0.01 0.25
8:22 am 08:22 Cloudy with Light Rain 64 17.8 62 16.7 93 93 Calm 30.07 1018 4 6 0.01 0.25
8:53 am 08:53 Cloudy 65 18.3 62 16.7 90 90 Calm 30.08 1019 8 13 0.01 0.25
9:53 am 09:53 Cloudy with Light Rain 65 18.3 62 16.7 90 90 ESE 5 7 30.09 1019 5 8 0.00 0.00
10:04 am 10:04 Cloudy with Light Rain 65 18.3 62 16.7 90 90 E 7 11 30.08 1019 2 3 0.01 0.25
10:23 am 10:23 Cloudy with Rain 65 18.3 63 17.2 93 93 E 6 9 30.08 1019 2 2 0.04 1.02
10:26 am 10:26 Cloudy with Light Rain 65 18.3 63 17.2 93 93 E 6 9 30.08 1019 2 3 0.04 1.02
10:35 am 10:35 Cloudy with Light Rain 66 18.9 64 17.8 93 93 E 6 9 30.08 1019 10 16 0.04 1.02
10:53 am 10:53 Cloudy 67 19.4 64 17.8 91 91 VRB 7 11 30.07 1018 10 16 0.04 1.02
11:53 am 11:53 Cloudy 68 20 64 17.8 87 87 VRB 3 6 30.07 1018 10 16 0.00 0.00
12:00 pm 12:00 Cloudy 69 20.6 64 17.8 84 84 VRB 3 6 30.06 1018 10 16 0.00 0.00
12:53 pm 12:53 Cloudy 70 21.1 65 18.3 84 84 Calm 30.07 1018 9 14 0.00 0.00
12:59 pm 12:59 Cloudy with Light Rain 71 21.7 65 18.3 81 81 E 6 9 30.06 1018 9 14 0.00 0.00
1:53 pm 13:53 Mostly Cloudy 73 22.8 66 18.9 79 79 SSE 5 7 30.05 1018 10 16 0.00 0.00
2:53 pm 14:53 Mostly Cloudy 76 24.4 66 18.9 72 72 Calm 30.04 1017 10 16 0.00 0.00
3:53 pm 15:53 Mostly Cloudy 75 23.9 64 17.8 69 69 ENE 8 13 30.02 1017 10 16 0.00 0.00
4:53 pm 16:53 Cloudy 74 23.3 64 17.8 71 71 E 12 19 30.02 1017 10 16 0.00 0.00
5:53 pm 17:53 Mostly Sunny 76 24.4 64 17.8 67 67 ENE 13 20 30.00 1016 10 16 0.00 0.00
6:53 pm 18:53 Sunny 74 23.3 63 17.2 69 69 ENE 12 19 29.99 1016 10 16 0.00 0.00
7:53 pm 19:53 Sunny 73 22.8 62 16.7 69 69 E 8 13 30.00 1016 10 16 0.00 0.00
8:53 pm 20:53 Clear 69 20.6 62 16.7 78 78 E 6 9 30.00 1016 10 16 0.00 0.00
9:53 pm 21:53 Clear 68 20 62 16.7 81 81 ENE 5 7 30.00 1016 10 16 0.00 0.00
10:53 pm 22:53 Clear 65 18.3 62 16.7 90 90 Calm 30.01 1016 10 16 0.00 0.00
11:53 pm 23:53 Mostly Cloudy 65 18.3 62 16.7 90 90 E 5 7 30.01 1016 10 16 0.00 0.00

Powered by AerisWeather